Weather History for Killeen/Ft Hood, TX

Change the Weather History Date:

Monday, February 17, 2014

  Actual Average Record
Temperature  
Mean Temperature 70 °F -  
Max Temperature 81 °F 62 °F 82 °F (2000)
Min Temperature 59 °F 46 °F 41 °F (1999)
Cooling Degree Days 6    
Growing Degree Days 20 (Base 50)    
Moisture  
Dew Point 44 °F    
Average Humidity 52    
Maximum Humidity 88    
Minimum Humidity 13    
Precipitation  
Precipitation 0.00 in - - ()
Sea Level Pressure  
Sea Level Pressure 30.10 in    
Wind  
Wind Speed 10 mph (WNW)    
Max Wind Speed 22 mph    
Max Gust Speed 36 mph    
Visibility 10 miles    
Events      
Averages and records for this station are not official NWS values.
T = Trace of Precipitation, MM = Missing Value Source: NWS Daily Summary

Daily Weather History Graph

Daily Weather History Graph

Search for Another Location

Airport:

Trip Planner

Search our weather history database for the weather conditions in past years. The results will help you decide how hot, cold, wet, or windy it might be!

Date:

Astronomy

Feb. 17, 2014 Rise Set
Actual Time 7:10 AM CST 6:20 PM CST
Civil Twilight 6:45 AM CST 6:44 PM CST
Nautical Twilight 6:17 AM CST 7:13 PM CST
Astronomical Twilight 5:48 AM CST 7:41 PM CST
Moon 9:01 PM CST (2/17) 8:24 AM CST (2/17)
Length of Visible Light 11h 59m
Length of Day
11h 09m
Waning Gibbous, 93% of the Moon is Illuminated
Feb 17
Waning Gibbous
Feb 22
Last Quarter
Mar 1
New
Mar 8
First Quarter
Mar 16
Full

Hourly Weather History & Observations

Time (CST) Temp. Dew Point Humidity Pressure Visibility Wind Dir Wind Speed Gust Speed Precip Events Conditions
12:56 AM 64.0 °F 60.1 °F 87% 30.01 in 10.0 mi South 8.1 mph - N/A   Overcast
1:56 AM 66.0 °F 61.0 °F 84% 30.01 in 10.0 mi South 15.0 mph 23.0 mph N/A   Overcast
2:56 AM 66.0 °F 61.0 °F 84% 29.99 in 10.0 mi South 11.5 mph - N/A   Overcast
3:56 AM 66.0 °F 60.1 °F 81% 29.99 in 10.0 mi South 12.7 mph 21.9 mph N/A   Overcast
4:56 AM 66.9 °F 60.1 °F 79% 30.01 in 10.0 mi South 12.7 mph - N/A   Overcast
5:56 AM 66.0 °F 60.1 °F 81% 30.02 in 10.0 mi South 11.5 mph - N/A   Mostly Cloudy
6:23 AM 64.4 °F 60.8 °F 88% 29.95 in 10.0 mi South 9.2 mph - N/A   Scattered Clouds
6:56 AM 64.0 °F 60.1 °F 87% 30.04 in 10.0 mi South 5.8 mph - N/A   Clear
7:31 AM 64.4 °F 60.8 °F 88% 29.99 in 10.0 mi SSW 5.8 mph - N/A   Mostly Cloudy
7:56 AM 66.0 °F 60.1 °F 81% 30.07 in 10.0 mi SW 8.1 mph - N/A   Mostly Cloudy
8:06 AM 66.2 °F 60.8 °F 83% 30.01 in 10.0 mi WSW 6.9 mph - N/A   Scattered Clouds
8:16 AM 66.2 °F 60.8 °F 83% 30.01 in 10.0 mi SW 9.2 mph - N/A   Mostly Cloudy
8:24 AM 66.2 °F 60.8 °F 83% 30.01 in 10.0 mi SW 11.5 mph - N/A   Scattered Clouds
8:56 AM 68.0 °F 60.1 °F 76% 30.13 in 10.0 mi WSW 11.5 mph - N/A   Clear
9:56 AM 72.0 °F 55.9 °F 57% 30.16 in 10.0 mi NNW 15.0 mph 21.9 mph N/A   Clear
10:56 AM 73.9 °F 39.0 °F 28% 30.19 in 10.0 mi North 21.9 mph 35.7 mph N/A   Clear
11:56 AM 75.0 °F 30.9 °F 20% 30.20 in 10.0 mi North 19.6 mph 28.8 mph N/A   Clear
12:56 PM 77.0 °F 25.0 °F 15% 30.18 in 10.0 mi North 13.8 mph 27.6 mph N/A   Clear
1:56 PM 79.0 °F 25.0 °F 14% 30.15 in 10.0 mi North 15.0 mph 26.5 mph N/A   Clear
2:56 PM 81.0 °F 26.1 °F 13% 30.15 in 10.0 mi North 12.7 mph 18.4 mph N/A   Clear
3:56 PM 79.0 °F 25.0 °F 14% 30.15 in 10.0 mi North 11.5 mph - N/A   Clear
4:56 PM 77.0 °F 21.9 °F 13% 30.16 in 10.0 mi NNE 9.2 mph - N/A   Clear
5:56 PM 73.0 °F 24.1 °F 16% 30.17 in 10.0 mi NNE 6.9 mph - N/A   Clear
6:56 PM 66.0 °F 26.1 °F 22% 30.19 in 10.0 mi North 3.5 mph - N/A   Clear
7:56 PM 64.9 °F 25.0 °F 22% 30.20 in 10.0 mi North 4.6 mph - N/A   Clear
8:56 PM 62.1 °F 25.0 °F 24% 30.22 in 10.0 mi North 4.6 mph - N/A   Clear
9:56 PM 62.1 °F 25.0 °F 24% 30.22 in 10.0 mi NNW 5.8 mph - N/A   Clear
10:56 PM 60.1 °F 25.0 °F 26% 30.22 in 10.0 mi NNW 4.6 mph - N/A   Clear
11:56 PM 59.0 °F 25.0 °F 27% 30.21 in 10.0 mi North 3.5 mph - N/A   Clear